San Jose, Costa Rica

8:33 AM CST on February 23, 2017 (GMT -0600)
Juan Santamaria International

Weather History for MROC - February, 2015

Change the Weather History Date:

Sunday, February 8, 2015

  Actual Average Record
Temperature  
Mean Temperature 75 °F -  
Max Temperature 84 °F 82 °F 89 °F (1998)
Min Temperature 66 °F 64 °F 62 °F (1998)
Cooling Degree Days 10    
Growing Degree Days 25 (Base 50)    
Moisture  
Dew Point 59 °F    
Average Humidity 65    
Maximum Humidity 94    
Minimum Humidity 35    
Precipitation  
Precipitation 0.00 in 0.01 in - ()
Sea Level Pressure  
Sea Level Pressure 30.03 in    
Wind  
Wind Speed 10 mph ()    
Max Wind Speed 20 mph    
Max Gust Speed 23 mph    
Visibility 7.2 miles    
Events      
Averages and records for this station are not official NWS values.
T = Trace of Precipitation, MM = Missing Value Source: Averaged Metar Reports

Daily Weather History Graph

Daily Weather History Graph

Search for Another Location

Airport or City:

Trip Planner

Search our weather history database for the weather conditions in past years. The results will help you decide how hot, cold, wet, or windy it might be!

Date:

Astronomy

Feb. 08, 2015 Rise Set
Actual Time 5:58 AM CST 5:43 PM CST
Civil Twilight 5:36 AM CST 6:05 PM CST
Nautical Twilight 5:11 AM CST 6:30 PM CST
Astronomical Twilight 4:46 AM CST 6:55 PM CST
Moon 9:25 PM CST (2/8) 8:55 AM CST (2/8)
Length of Visible Light 12h 28m
Length of Day
11h 45m
Waning Gibbous, 81% of the Moon is Illuminated
Feb 8
Waning Gibbous
Feb 11
Last Quarter
Feb 18
New
Feb 25
First Quarter
Mar 5
Full

Hourly Weather History & Observations

Time (CST) Temp. Heat Index Dew Point Humidity Pressure Visibility Wind Dir Wind Speed Gust Speed Precip Events Conditions
12:00 AM 68.0 °F - 57.2 °F 68% 30.07 in 6.2 mi ENE 16.1 mph - N/A   Partly Cloudy
1:00 AM 68.0 °F - 59.0 °F 73% 30.04 in 6.2 mi East 11.5 mph 23.0 mph N/A   Scattered Clouds
2:00 AM 68.0 °F - 55.4 °F 64% 30.03 in 6.2 mi East 9.2 mph 20.7 mph N/A   Scattered Clouds
3:00 AM 68.0 °F - 57.2 °F 68% 30.03 in 6.2 mi East 19.6 mph - N/A   Scattered Clouds
4:00 AM 68.0 °F - 55.4 °F 64% 30.01 in 6.2 mi East 9.2 mph 20.7 mph N/A   Scattered Clouds
5:00 AM 66.2 °F - 57.2 °F 73% 30.03 in 6.2 mi East 16.1 mph - N/A   Scattered Clouds
6:00 AM 66.2 °F - 55.4 °F 68% 30.04 in 6.2 mi East 16.1 mph - N/A   Scattered Clouds
7:00 AM 68.0 °F - 57.2 °F 68% 30.07 in - ESE 11.5 mph - N/A   Clear
8:00 AM 73.4 °F - 57.2 °F 57% 30.08 in - East 13.8 mph - N/A   Clear
9:00 AM 73.4 °F - 55.4 °F 53% 30.09 in - ESE 13.8 mph - N/A   Clear
10:00 AM 75.2 °F - 55.4 °F 50% 30.09 in - East 13.8 mph - N/A   Clear
11:00 AM 77.0 °F - 57.2 °F 50% 30.08 in - East 11.5 mph - N/A   Clear
12:00 PM 79 °F - 56 °F 35%  in 12 mi East 13.8 mph - -   Scattered Clouds
12:00 PM 78.8 °F - 55.4 °F 44% 30.06 in 6.2 mi East 13.8 mph - N/A   Mostly Cloudy
1:00 PM 80.6 °F 80.8 °F 57.2 °F 45% 30.02 in 6.2 mi East 10.4 mph - N/A   Mostly Cloudy
2:00 PM 80.6 °F 80.5 °F 55.4 °F 42% 30.00 in 6.2 mi East 9.2 mph - N/A   Mostly Cloudy
3:00 PM 79 °F - 57 °F 36% 29.84 in 12 mi SE 6.9 mph - -   Partly Cloudy
3:00 PM 78.8 °F - 57.2 °F 47% 29.99 in 6.2 mi SE 6.9 mph - N/A   Mostly Cloudy
3:15 PM 77.0 °F - 62.6 °F 61% 29.99 in 6.2 mi SW 9.2 mph - N/A   Mostly Cloudy
4:00 PM 73.4 °F - 64.4 °F 73% 30.00 in 6.2 mi WSW 8.1 mph - N/A   Mostly Cloudy
5:00 PM 71.6 °F - 62.6 °F 73% - 6.2 mi SW 4.6 mph - N/A   Mostly Cloudy
6:00 PM 69 °F - 64 °F 81% 29.93 in 12 mi WSW 5.8 mph - -   Overcast
6:00 PM 69.8 °F - 64.4 °F 83% 30.04 in 6.2 mi WSW 5.8 mph - N/A   Mostly Cloudy
7:00 PM 68.0 °F - 64.4 °F 88% 30.06 in 6.2 mi West 3.5 mph - N/A   Mostly Cloudy
8:00 PM 68.0 °F - 66.2 °F 94% 30.08 in 6.2 mi WNW 3.5 mph - N/A   Scattered Clouds
9:00 PM 68 °F - 64 °F 85% 29.98 in 12 mi WSW 3.5 mph - -   Overcast
9:00 PM 68.0 °F - 64.4 °F 88% 30.10 in 6.2 mi WSW 3.5 mph - N/A   Mostly Cloudy
10:00 PM 68.0 °F - 64.4 °F 88% 30.10 in 6.2 mi NNE 3.5 mph - N/A   Mostly Cloudy
11:00 PM - - - N/A% 30.09 in 6.2 mi Variable 2.3 mph - N/A   Mostly Cloudy